| time (UTC) | temp F | wind direction | speed MPH | gust MPH | rain 1hr in | rain 24hr in | rain mn in | humidity % | barometer mb |
| 20260503005551 | 48 | 101 | 6.0 | 8.0 | 0.02 | 0.02 | 0.02 | 94 | 1014.6 |
| 20260503005051 | 48 | 3 | 6.0 | 11.0 | 0.02 | 0.02 | 0.02 | 94 | 1014.8 |
| 20260503004551 | 48 | 0.0 | 0.0 | 0.02 | 0.02 | 0.02 | 94 | 1014.9 | |
| 20260503004051 | 48 | 164 | 6.0 | 7.0 | 0.01 | 0.02 | 0.01 | 94 | 1014.7 |
| 20260503003551 | 48 | 164 | 6.0 | 13.0 | 0.01 | 0.02 | 0.01 | 94 | 1014.9 |
| 20260503003051 | 48 | 50 | 4.0 | 6.0 | 0.01 | 0.02 | 0.01 | 94 | 1014.9 |
| 20260503002551 | 48 | 91 | 6.0 | 9.0 | 0.00 | 0.01 | 0.00 | 94 | 1015.0 |
| 20260503002051 | 48 | 73 | 9.0 | 13.0 | 0.00 | 0.01 | 0.00 | 94 | 1015.1 |
| 20260503001551 | 48 | 83 | 8.0 | 10.0 | 0.00 | 0.01 | 0.00 | 94 | 1015.0 |
| 20260503001051 | 48 | 93 | 8.0 | 11.0 | 0.00 | 0.01 | 0.00 | 93 | 1015.1 |
| 20260503000551 | 48 | 0.0 | 0.0 | 0.00 | 0.01 | 0.00 | 93 | 1015.1 | |
| 20260503000053 | 48 | 81 | 9.0 | 13.0 | 0.00 | 0.01 | 0.00 | 93 | 1015.2 |
| 20260502235551 | 48 | 81 | 9.0 | 13.0 | 0.00 | 0.01 | 0.00 | 93 | 1014.9 |
| 20260502235051 | 48 | 69 | 5.0 | 8.0 | 0.00 | 0.01 | 0.00 | 93 | 1015.1 |
| 20260502234551 | 48 | 0.0 | 0.0 | 0.00 | 0.01 | 0.00 | 93 | 1015.1 | |
| 20260502234051 | 48 | 0.0 | 0.0 | 0.00 | 0.01 | 0.00 | 93 | 1015.1 | |
| 20260502233551 | 48 | 74 | 8.0 | 10.0 | 0.00 | 0.01 | 0.00 | 93 | 1015.0 |
| 20260502233051 | 48 | 74 | 8.0 | 10.0 | 0.00 | 0.01 | 0.00 | 93 | 1015.2 |
| 20260502232551 | 48 | 167 | 7.0 | 11.0 | 0.00 | 0.01 | 0.00 | 93 | 1015.1 |
| 20260502232051 | 49 | 77 | 6.0 | 9.0 | 0.00 | 0.01 | 0.00 | 93 | 1015.3 |
| 20260502231551 | 49 | 111 | 5.0 | 7.0 | 0.00 | 0.01 | 0.00 | 93 | 1015.3 |
| 20260502231051 | 49 | 111 | 5.0 | 7.0 | 0.00 | 0.01 | 0.00 | 92 | 1015.5 |
| 20260502230551 | 49 | 84 | 7.0 | 10.0 | 0.00 | 0.01 | 0.00 | 92 | 1015.4 |
| 20260502230051 | 49 | 114 | 6.0 | 8.0 | 0.00 | 0.01 | 0.00 | 92 | 1015.2 |
| 20260502225551 | 49 | 73 | 8.0 | 9.0 | 0.00 | 0.01 | 0.00 | 92 | 1015.5 |
| 20260502225051 | 49 | 0.0 | 0.0 | 0.00 | 0.01 | 0.00 | 92 | 1015.2 | |
| 20260502224551 | 49 | 55 | 6.0 | 7.0 | 0.00 | 0.01 | 0.00 | 92 | 1015.4 |
| 20260502224051 | 49 | 55 | 6.0 | 7.0 | 0.00 | 0.01 | 0.00 | 92 | 1015.4 |
| 20260502223551 | 49 | 106 | 7.0 | 13.0 | 0.00 | 0.01 | 0.00 | 91 | 1015.3 |
| 20260502223051 | 49 | 106 | 7.0 | 13.0 | 0.00 | 0.01 | 0.00 | 91 | 1015.3 |
| 20260502222551 | 49 | 198 | 4.0 | 6.0 | 0.00 | 0.01 | 0.00 | 91 | 1015.3 |
| 20260502222051 | 49 | 99 | 4.0 | 7.0 | 0.00 | 0.01 | 0.00 | 91 | 1015.3 |
| 20260502221551 | 49 | 0.0 | 0.0 | 0.00 | 0.01 | 0.00 | 91 | 1015.1 | |
| 20260502221051 | 49 | 82 | 10.0 | 13.0 | 0.00 | 0.01 | 0.00 | 91 | 1015.0 |
| 20260502220551 | 49 | 82 | 10.0 | 13.0 | 0.00 | 0.01 | 0.00 | 91 | 1015.1 |
| 20260502220051 | 49 | 112 | 8.0 | 9.0 | 0.00 | 0.01 | 0.00 | 91 | 1015.2 |
| 20260502215551 | 49 | 92 | 5.0 | 6.0 | 0.00 | 0.04 | 0.00 | 91 | 1015.2 |
| 20260502215051 | 49 | 92 | 9.0 | 13.0 | 0.00 | 0.04 | 0.00 | 90 | 1015.0 |
| 20260502214551 | 49 | 78 | 9.0 | 10.0 | 0.00 | 0.04 | 0.00 | 90 | 1015.2 |
| 20260502214051 | 49 | 78 | 9.0 | 10.0 | 0.00 | 0.04 | 0.00 | 90 | 1015.3 |
| 20260502213551 | 49 | 73 | 7.0 | 13.0 | 0.00 | 0.04 | 0.00 | 90 | 1015.0 |
| 20260502213051 | 49 | 111 | 8.0 | 11.0 | 0.00 | 0.04 | 0.00 | 90 | 1015.5 |
| 20260502212551 | 49 | 0.0 | 0.0 | 0.00 | 0.04 | 0.00 | 90 | 1015.4 | |
| 20260502212051 | 49 | 36 | 4.0 | 7.0 | 0.00 | 0.04 | 0.00 | 90 | 1015.2 |
| 20260502211551 | 50 | 36 | 4.0 | 7.0 | 0.00 | 0.04 | 0.00 | 90 | 1015.4 |
| 20260502211051 | 49 | 74 | 7.0 | 10.0 | 0.00 | 0.04 | 0.00 | 90 | 1015.4 |
| 20260502210551 | 49 | 66 | 8.0 | 10.0 | 0.00 | 0.04 | 0.00 | 90 | 1015.4 |
| 20260502210051 | 49 | 0.0 | 0.0 | 0.00 | 0.04 | 0.00 | 90 | 1015.4 | |
| 20260502205551 | 50 | 0.0 | 0.0 | 0.00 | 0.11 | 0.00 | 89 | 1015.2 | |
| 20260502205051 | 50 | 0.0 | 0.0 | 0.00 | 0.11 | 0.00 | 89 | 1015.2 | |
| 20260502204550 | 50 | 0.0 | 0.0 | 0.00 | 0.11 | 0.00 | 89 | 1015.2 | |
| 20260502204050 | 50 | 0.0 | 0.0 | 0.00 | 0.11 | 0.00 | 89 | 1015.1 | |
| 20260502203550 | 50 | 0.0 | 0.0 | 0.00 | 0.11 | 0.00 | 88 | 1015.3 | |
| 20260502203050 | 50 | 0.0 | 0.0 | 0.00 | 0.11 | 0.00 | 88 | 1015.0 | |
| 20260502202550 | 50 | 0.0 | 0.0 | 0.00 | 0.11 | 0.00 | 88 | 1015.0 | |
| 20260502202050 | 50 | 0.0 | 0.0 | 0.00 | 0.11 | 0.00 | 88 | 1015.0 | |
| 20260502201550 | 50 | 0.0 | 0.0 | 0.00 | 0.11 | 0.00 | 88 | 1015.2 | |
| 20260502201050 | 50 | 0.0 | 0.0 | 0.00 | 0.11 | 0.00 | 87 | 1015.1 | |
| 20260502200550 | 50 | 61 | 3.0 | 4.0 | 0.00 | 0.11 | 0.00 | 87 | 1015.0 |
| 20260502200050 | 50 | 61 | 3.0 | 4.0 | 0.00 | 0.11 | 0.00 | 86 | 1015.0 |
| 20260502195550 | 50 | 0.0 | 0.0 | 0.00 | 0.11 | 0.00 | 86 | 1015.0 | |
| 20260502195050 | 50 | 0.0 | 0.0 | 0.00 | 0.11 | 0.00 | 85 | 1015.0 | |
| 20260502194550 | 50 | 0.0 | 0.0 | 0.00 | 0.11 | 0.00 | 85 | 1014.9 | |
| 20260502194050 | 50 | 0.0 | 0.0 | 0.00 | 0.11 | 0.00 | 85 | 1014.8 | |
| 20260502193550 | 51 | 73 | 6.0 | 8.0 | 0.00 | 0.11 | 0.00 | 85 | 1014.9 |
| 20260502193050 | 51 | 73 | 6.0 | 8.0 | 0.00 | 0.11 | 0.00 | 84 | 1014.7 |
| 20260502192550 | 51 | 69 | 7.0 | 9.0 | 0.00 | 0.11 | 0.00 | 84 | 1014.6 |
| 20260502192050 | 51 | 0.0 | 0.0 | 0.00 | 0.11 | 0.00 | 84 | 1014.5 | |
| 20260502191550 | 51 | 0.0 | 0.0 | 0.00 | 0.11 | 0.00 | 84 | 1014.4 | |
| 20260502191050 | 51 | 0.0 | 0.0 | 0.00 | 0.11 | 0.00 | 84 | 1014.4 | |
| 20260502190550 | 51 | 159 | 5.0 | 6.0 | 0.00 | 0.11 | 0.00 | 84 | 1014.1 |
| 20260502190050 | 52 | 159 | 5.0 | 6.0 | 0.00 | 0.11 | 0.00 | 84 | 1014.2 |
| 20260502185550 | 52 | 136 | 2.0 | 2.0 | 0.00 | 0.12 | 0.00 | 83 | 1014.2 |
| 20260502185050 | 52 | 105 | 5.0 | 8.0 | 0.00 | 0.12 | 0.00 | 83 | 1014.4 |
| 20260502184550 | 52 | 38 | 5.0 | 7.0 | 0.00 | 0.12 | 0.00 | 83 | 1014.3 |
| 20260502184050 | 53 | 95 | 8.0 | 9.0 | 0.00 | 0.12 | 0.00 | 82 | 1014.1 |
| 20260502183550 | 53 | 47 | 3.0 | 6.0 | 0.00 | 0.12 | 0.00 | 81 | 1014.0 |
| 20260502183050 | 53 | 155 | 3.0 | 6.0 | 0.00 | 0.12 | 0.00 | 81 | 1014.0 |
| 20260502182550 | 54 | 155 | 3.0 | 6.0 | 0.00 | 0.12 | 0.00 | 80 | 1014.0 |
| 20260502182050 | 54 | 72 | 4.0 | 6.0 | 0.00 | 0.12 | 0.00 | 79 | 1013.9 |
| 20260502181550 | 55 | 45 | 1.0 | 2.0 | 0.00 | 0.12 | 0.00 | 78 | 1014.1 |
| 20260502181050 | 55 | 45 | 1.0 | 4.0 | 0.00 | 0.12 | 0.00 | 78 | 1014.0 |
| 20260502180550 | 56 | 92 | 3.0 | 6.0 | 0.00 | 0.12 | 0.00 | 77 | 1014.1 |
| 20260502164050 | 62 | 201 | 2.0 | 3.0 | 0.00 | 0.32 | 0.00 | 71 | 1013.4 |
| 20260502163550 | 62 | 152 | 1.0 | 2.0 | 0.00 | 0.32 | 0.00 | 71 | 1013.3 |
| 20260502163050 | 63 | 248 | 2.0 | 2.0 | 0.00 | 0.32 | 0.00 | 70 | 1013.4 |
| 20260502162550 | 63 | 312 | 2.0 | 2.0 | 0.00 | 0.32 | 0.00 | 71 | 1013.4 |
| 20260502162050 | 63 | 214 | 2.0 | 3.0 | 0.00 | 0.32 | 0.00 | 71 | 1013.4 |
| 20260502161550 | 63 | 146 | 1.0 | 2.0 | 0.00 | 0.32 | 0.00 | 70 | 1013.3 |
| 20260502161050 | 63 | 143 | 2.0 | 4.0 | 0.00 | 0.32 | 0.00 | 70 | 1013.7 |
| 20260502160550 | 63 | 244 | 2.0 | 2.0 | 0.00 | 0.32 | 0.00 | 70 | 1013.4 |
| 20260502152050 | 63 | 81 | 1.0 | 2.0 | 0.00 | 0.32 | 0.00 | 73 | 1013.1 |
| 20260502151550 | 63 | 153 | 1.0 | 1.0 | 0.00 | 0.32 | 0.00 | 73 | 1013.4 |
| 20260502151050 | 63 | 161 | 0.0 | 0.0 | 0.00 | 0.32 | 0.00 | 73 | 1013.2 |
| 20260502150552 | 63 | 232 | 1.0 | 2.0 | 0.00 | 0.32 | 0.00 | 73 | 1013.4 |
| 20260502130549 | 63 | 150 | 0.0 | 1.0 | 0.00 | 0.35 | 0.00 | 74 | 1013.8 |
| 20260502123549 | 63 | 154 | 2.0 | 2.0 | 0.00 | 0.35 | 0.00 | 70 | 1014.1 |
| 20260502123049 | 64 | 75 | 2.0 | 2.0 | 0.00 | 0.35 | 0.00 | 70 | 1014.1 |
| 20260502122549 | 64 | 194 | 1.0 | 1.0 | 0.00 | 0.35 | 0.00 | 70 | 1014.0 |
| 20260502122049 | 64 | 194 | 1.0 | 1.0 | 0.00 | 0.35 | 0.00 | 68 | 1013.8 |
| 20260502121549 | 65 | 107 | 1.0 | 2.0 | 0.00 | 0.35 | 0.00 | 68 | 1013.8 |
| 20260502121049 | 66 | 188 | 0.0 | 1.0 | 0.00 | 0.35 | 0.00 | 66 | 1013.9 |
| 20260502120549 | 67 | 156 | 1.0 | 2.0 | 0.00 | 0.35 | 0.00 | 65 | 1014.0 |
| 20260502115549 | 71 | 180 | 1.0 | 3.0 | 0.00 | 0.35 | 0.00 | 65 | 1014.0 |
| 20260502115049 | 71 | 168 | 1.0 | 2.0 | 0.00 | 0.35 | 0.00 | 65 | 1014.2 |
| 20260502114049 | 71 | 192 | 0.0 | 1.0 | 0.00 | 0.35 | 0.00 | 68 | 1014.2 |
| 20260502113549 | 70 | 192 | 0.0 | 1.0 | 0.00 | 0.35 | 0.00 | 70 | 1014.0 |
| 20260502113049 | 69 | 24 | 0.0 | 1.0 | 0.00 | 0.35 | 0.00 | 71 | 1014.3 |
| 20260502112549 | 68 | 177 | 1.0 | 3.0 | 0.00 | 0.35 | 0.00 | 73 | 1014.1 |
| 20260502112049 | 67 | 290 | 2.0 | 2.0 | 0.00 | 0.35 | 0.00 | 74 | 1014.3 |
| 20260502111549 | 65 | 37 | 1.0 | 2.0 | 0.00 | 0.35 | 0.00 | 74 | 1014.2 |
| 20260502111049 | 64 | 204 | 2.0 | 3.0 | 0.00 | 0.35 | 0.00 | 75 | 1014.1 |
| 20260502110549 | 64 | 296 | 2.0 | 3.0 | 0.00 | 0.35 | 0.00 | 75 | 1014.2 |
| 20260502110049 | 64 | 296 | 2.0 | 3.0 | 0.00 | 0.35 | 0.00 | 75 | 1014.3 |
| 20260502105549 | 64 | 185 | 1.0 | 1.0 | 0.00 | 0.35 | 0.00 | 75 | 1014.3 |
| 20260502105049 | 64 | 187 | 0.0 | 1.0 | 0.00 | 0.35 | 0.00 | 76 | 1014.4 |
| 20260502104549 | 64 | 212 | 2.0 | 3.0 | 0.00 | 0.35 | 0.00 | 75 | 1014.3 |
| 20260502104049 | 63 | 295 | 3.0 | 6.0 | 0.00 | 0.35 | 0.00 | 75 | 1014.4 |
| 20260502103549 | 63 | 273 | 1.0 | 2.0 | 0.00 | 0.35 | 0.00 | 75 | 1014.4 |
| 20260502103049 | 64 | 297 | 1.0 | 2.0 | 0.00 | 0.35 | 0.00 | 76 | 1014.4 |
| 20260502102549 | 64 | 91 | 1.0 | 1.0 | 0.00 | 0.35 | 0.00 | 77 | 1014.6 |
| 20260502102049 | 64 | 329 | 1.0 | 3.0 | 0.00 | 0.35 | 0.00 | 77 | 1014.5 |
| 20260502101049 | 63 | 278 | 2.0 | 3.0 | 0.00 | 0.35 | 0.00 | 78 | 1014.5 |
| 20260502100549 | 62 | 168 | 2.0 | 2.0 | 0.00 | 0.35 | 0.00 | 77 | 1014.7 |
| 20260502091049 | 61 | 186 | 2.0 | 2.0 | 0.00 | 0.35 | 0.00 | 81 | 1014.4 |
| 20260502090549 | 61 | 164 | 2.0 | 2.0 | 0.00 | 0.35 | 0.00 | 82 | 1014.4 |
| 20260502071048 | 55 | 250 | 0.0 | 1.0 | 0.00 | 0.35 | 0.00 | 93 | 1014.8 |
| 20260502070548 | 54 | 250 | 0.0 | 1.0 | 0.00 | 0.35 | 0.00 | 93 | 1014.7 |
| 20260502070049 | 54 | 132 | 1.0 | 1.0 | 0.00 | 0.35 | 0.00 | 93 | 1014.7 |
| 20260502065548 | 54 | 9 | 1.0 | 2.0 | 0.00 | 0.34 | 0.00 | 93 | 1014.7 |
| 20260502065048 | 54 | 26 | 1.0 | 1.0 | 0.00 | 0.34 | 0.00 | 94 | 1014.7 |
| 20260502064548 | 54 | 46 | 1.0 | 1.0 | 0.00 | 0.34 | 0.00 | 94 | 1014.7 |
| 20260502064048 | 53 | 197 | 1.0 | 1.0 | 0.00 | 0.34 | 0.00 | 94 | 1014.8 |
| 20260502063548 | 53 | 152 | 0.0 | 1.0 | 0.00 | 0.34 | 0.00 | 94 | 1014.8 |
| 20260502063048 | 52 | 152 | 0.0 | 1.0 | 0.00 | 0.34 | 0.00 | 94 | 1014.6 |
| 20260502062548 | 52 | 247 | 1.0 | 1.0 | 0.00 | 0.34 | 0.00 | 94 | 1014.7 |
| 20260502062048 | 51 | 247 | 1.0 | 1.0 | 0.00 | 0.34 | 0.00 | 94 | 1014.7 |
| 20260502061548 | 50 | 193 | 1.0 | 2.0 | 0.00 | 0.34 | 0.00 | 94 | 1014.9 |
| 20260502061048 | 50 | 81 | 1.0 | 1.0 | 0.00 | 0.34 | 0.00 | 94 | 1014.6 |
| 20260502060548 | 50 | 108 | 1.0 | 1.0 | 0.00 | 0.34 | 0.00 | 94 | 1014.5 |
| 20260502060048 | 49 | 140 | 1.0 | 1.0 | 0.00 | 0.34 | 0.00 | 94 | 1014.5 |
| 20260502055548 | 49 | 140 | 1.0 | 1.0 | 0.00 | 0.34 | 0.00 | 94 | 1014.5 |
| 20260502055048 | 49 | 0.0 | 0.0 | 0.00 | 0.34 | 0.00 | 94 | 1014.4 | |
| 20260502054548 | 49 | 0.0 | 0.0 | 0.00 | 0.34 | 0.00 | 94 | 1014.4 | |
| 20260502054048 | 49 | 0.0 | 0.0 | 0.00 | 0.34 | 0.00 | 94 | 1014.5 | |
| 20260502053548 | 49 | 229 | 2.0 | 3.0 | 0.00 | 0.34 | 0.00 | 94 | 1014.3 |
| 20260502053048 | 49 | 229 | 2.0 | 3.0 | 0.00 | 0.34 | 0.00 | 94 | 1014.4 |
| 20260502052548 | 49 | 121 | 1.0 | 1.0 | 0.00 | 0.34 | 0.00 | 94 | 1014.3 |
| 20260502052048 | 49 | 121 | 1.0 | 1.0 | 0.00 | 0.34 | 0.00 | 94 | 1014.3 |
| 20260502051548 | 49 | 92 | 2.0 | 4.0 | 0.00 | 0.34 | 0.00 | 94 | 1014.6 |
| 20260502051048 | 49 | 92 | 2.0 | 4.0 | 0.00 | 0.34 | 0.00 | 94 | 1014.5 |
| 20260502050548 | 49 | 220 | 1.0 | 2.0 | 0.00 | 0.34 | 0.00 | 94 | 1014.2 |
| 20260502050048 | 49 | 220 | 1.0 | 2.0 | 0.00 | 0.34 | 0.00 | 94 | 1014.6 |
| 20260502045548 | 49 | 98 | 0.0 | 0.0 | 0.00 | 0.34 | 0.00 | 94 | 1014.5 |
| 20260502045048 | 49 | 224 | 1.0 | 2.0 | 0.00 | 0.34 | 0.00 | 94 | 1014.3 |
| 20260502044548 | 49 | 142 | 2.0 | 3.0 | 0.00 | 0.34 | 0.00 | 94 | 1014.3 |
| 20260502044048 | 49 | 302 | 1.0 | 2.0 | 0.00 | 0.34 | 0.00 | 94 | 1014.1 |
| 20260502043548 | 49 | 90 | 1.0 | 2.0 | 0.00 | 0.34 | 0.00 | 94 | 1014.4 |
| 20260502043050 | 49 | 187 | 1.0 | 1.0 | 0.00 | 0.34 | 0.00 | 94 | 1014.1 |
| 20260502042548 | 49 | 187 | 1.0 | 1.0 | 0.00 | 0.34 | 0.00 | 94 | 1014.1 |
| 20260502042048 | 49 | 0.0 | 0.0 | 0.00 | 0.34 | 0.00 | 94 | 1014.2 | |
| 20260502041548 | 49 | 151 | 1.0 | 1.0 | 0.00 | 0.34 | 0.00 | 94 | 1014.1 |
| 20260502041048 | 49 | 151 | 1.0 | 1.0 | 0.00 | 0.34 | 0.00 | 94 | 1014.3 |
| 20260502040548 | 49 | 71 | 1.0 | 3.0 | 0.00 | 0.34 | 0.00 | 94 | 1014.3 |
| 20260502040048 | 49 | 71 | 1.0 | 3.0 | 0.00 | 0.34 | 0.00 | 94 | 1014.4 |
| 20260502035548 | 49 | 57 | 0.0 | 1.0 | 0.00 | 0.34 | 0.00 | 94 | 1014.4 |
| 20260502035048 | 49 | 181 | 3.0 | 4.0 | 0.00 | 0.34 | 0.00 | 94 | 1014.6 |
| 20260502034550 | 49 | 16 | 2.0 | 2.0 | 0.00 | 0.34 | 0.00 | 94 | 1014.5 |
| 20260502034048 | 49 | 0.0 | 0.0 | 0.00 | 0.34 | 0.00 | 94 | 1014.4 | |
| 20260502033548 | 49 | 0.0 | 0.0 | 0.00 | 0.34 | 0.00 | 94 | 1014.8 | |
| 20260502033048 | 49 | 172 | 2.0 | 3.0 | 0.00 | 0.34 | 0.00 | 94 | 1014.6 |
| 20260502032548 | 49 | 172 | 2.0 | 3.0 | 0.00 | 0.34 | 0.00 | 94 | 1014.8 |
| 20260502032048 | 49 | 0.0 | 0.0 | 0.00 | 0.34 | 0.00 | 94 | 1014.5 | |
| 20260502031548 | 49 | 169 | 3.0 | 4.0 | 0.00 | 0.34 | 0.00 | 94 | 1014.5 |
| 20260502031048 | 50 | 169 | 3.0 | 4.0 | 0.00 | 0.34 | 0.00 | 94 | 1014.5 |
| 20260502030548 | 49 | 246 | 1.0 | 2.0 | 0.00 | 0.34 | 0.00 | 94 | 1014.7 |
| 20260502030048 | 49 | 246 | 1.0 | 2.0 | 0.00 | 0.34 | 0.00 | 94 | 1014.5 |
| 20260502025550 | 49 | 163 | 1.0 | 1.0 | 0.00 | 0.34 | 0.00 | 94 | 1014.7 |
| 20260502025048 | 49 | 0.0 | 0.0 | 0.00 | 0.34 | 0.00 | 94 | 1014.9 | |
| 20260502024548 | 49 | 156 | 0.0 | 1.0 | 0.00 | 0.34 | 0.00 | 94 | 1015.0 |
| 20260502024048 | 49 | 156 | 0.0 | 1.0 | 0.00 | 0.34 | 0.00 | 94 | 1014.9 |
| 20260502023548 | 49 | 36 | 1.0 | 2.0 | 0.00 | 0.34 | 0.00 | 94 | 1014.8 |
| 20260502023048 | 49 | 36 | 1.0 | 2.0 | 0.00 | 0.34 | 0.00 | 94 | 1014.8 |
| 20260502022548 | 49 | 113 | 1.0 | 3.0 | 0.00 | 0.34 | 0.00 | 94 | 1014.7 |
| 20260502022048 | 49 | 64 | 2.0 | 2.0 | 0.00 | 0.34 | 0.00 | 94 | 1014.9 |
| 20260502021548 | 49 | 189 | 1.0 | 1.0 | 0.00 | 0.34 | 0.00 | 94 | 1014.9 |
| 20260502021048 | 49 | 189 | 1.0 | 1.0 | 0.00 | 0.34 | 0.00 | 94 | 1015.1 |
| 20260502020548 | 49 | 156 | 3.0 | 6.0 | 0.00 | 0.34 | 0.00 | 94 | 1015.0 |
| 20260502020048 | 49 | 179 | 1.0 | 2.0 | 0.00 | 0.34 | 0.00 | 94 | 1015.0 |
| 20260502015548 | 49 | 202 | 2.0 | 3.0 | 0.00 | 0.34 | 0.00 | 94 | 1015.0 |
| 20260502015048 | 49 | 226 | 1.0 | 2.0 | 0.00 | 0.34 | 0.00 | 94 | 1015.2 |
| 20260502014548 | 49 | 226 | 1.0 | 2.0 | 0.00 | 0.34 | 0.00 | 94 | 1015.3 |
| 20260502014048 | 49 | 254 | 1.0 | 1.0 | 0.00 | 0.34 | 0.00 | 93 | 1015.4 |
| 20260502013548 | 49 | 120 | 2.0 | 2.0 | 0.00 | 0.34 | 0.00 | 93 | 1015.5 |
| 20260502013048 | 49 | 162 | 2.0 | 2.0 | 0.00 | 0.34 | 0.00 | 93 | 1015.8 |
| 20260502012548 | 49 | 99 | 1.0 | 2.0 | 0.00 | 0.34 | 0.00 | 93 | 1015.6 |
| 20260502012048 | 49 | 199 | 1.0 | 2.0 | 0.00 | 0.34 | 0.00 | 93 | 1015.6 |
| 20260502011548 | 49 | 186 | 1.0 | 1.0 | 0.00 | 0.34 | 0.00 | 93 | 1015.8 |
| 20260502011048 | 49 | 134 | 1.0 | 2.0 | 0.00 | 0.34 | 0.00 | 93 | 1015.6 |
| 20260502010548 | 49 | 353 | 1.0 | 1.0 | 0.00 | 0.34 | 0.00 | 93 | 1015.5 |
| 20260502010050 | 49 | 136 | 0.0 | 4.0 | 0.00 | 0.34 | 0.00 | 93 | 1015.7 |